User: anonymous   Login
Location: Brede
(50.9167°N, 0.6000°E)
Time: 15:49:42
(UTC+00:00)
Language:

Cosmos 1674 - Orbit

View from above orbital plane
View from above orbital plane
View from above satellite
View from above satellite

Ground track
Ground track

The orbit data is extracted from the following two-line orbital elements,

1 15944U 85069A   20296.02122379  .00000996  00000-0  44647-4 0  9999
2 15944  82.5050  96.4395 0016615 186.9465 173.1543 15.19919636923603
Epoch (UTC): 22 October 2020 00:30:33
Eccentricity: 0.0016615
inclination: 82.5050°
perigee height: 494 km
apogee height: 517 km
right ascension of ascending node: 96.4395°
argument of perigee: 186.9465°
revolutions per day: 15.19919636
mean anomaly at epoch: 173.1543°
orbit number at epoch: 92360

The dashed part of the orbit path shows where the satellite is in the earth's shadow,  

DLR